Time,TemperatureF,DewpointF,PressureIn,WindDirection,WindDirectionDegrees,WindSpeedMPH,WindSpeedGustMPH,Humidity,HourlyPrecipIn,Conditions,Clouds,dailyrainin,SoftwareType,DateUTC
2013-03-03 00:02:00,24.6,12.6,30.05,WSW,245,4.0,7.8,56,0.00,,,0.00,WSDL version 420,2013-03-03 05:02:00,
2013-03-03 00:07:00,24.5,12.4,30.05,NW,326,2.3,7.8,55,0.00,,,0.00,WSDL version 420,2013-03-03 05:07:00,
2013-03-03 00:17:00,24.4,12.5,30.05,SW,228,2.4,6.5,57,0.00,,,0.00,WSDL version 420,2013-03-03 05:17:00,
2013-03-03 00:22:00,24.4,12.8,30.04,SW,223,2.9,5.8,57,0.00,,,0.00,WSDL version 420,2013-03-03 05:22:00,
2013-03-03 00:27:00,24.3,12.7,30.04,WSW,253,2.7,6.3,57,0.00,,,0.00,WSDL version 420,2013-03-03 05:27:00,
2013-03-03 00:32:00,24.4,13.0,30.04,West,276,2.7,6.3,57,0.00,,,0.00,WSDL version 420,2013-03-03 05:32:00,
2013-03-03 00:37:00,24.3,13.0,30.04,WNW,285,3.3,9.6,58,0.00,,,0.00,WSDL version 420,2013-03-03 05:37:00,
2013-03-03 00:42:00,24.2,13.0,30.04,West,270,3.3,9.6,58,0.00,,,0.00,WSDL version 420,2013-03-03 05:42:00,
2013-03-03 00:47:00,24.3,13.1,30.04,West,263,3.1,8.5,58,0.00,,,0.00,WSDL version 420,2013-03-03 05:47:00,
2013-03-03 00:52:00,24.1,12.9,30.04,SE,127,2.6,5.8,58,0.00,,,0.00,WSDL version 420,2013-03-03 05:52:00,
2013-03-03 00:57:00,24.0,12.7,30.04,SW,223,3.5,6.5,58,0.00,,,0.00,WSDL version 420,2013-03-03 05:57:00,
2013-03-03 01:02:00,23.9,12.7,30.04,SW,235,3.0,6.5,58,0.00,,,0.00,WSDL version 420,2013-03-03 06:02:00,
2013-03-03 01:07:00,23.9,12.6,30.04,WSW,248,2.9,6.3,58,0.00,,,0.00,WSDL version 420,2013-03-03 06:07:00,
2013-03-03 01:12:00,23.8,12.4,30.04,WSW,255,4.1,8.5,57,0.00,,,0.00,WSDL version 420,2013-03-03 06:12:00,
2013-03-03 01:17:00,23.7,12.2,30.05,West,262,2.4,8.5,57,0.00,,,0.00,WSDL version 420,2013-03-03 06:17:00,
2013-03-03 01:22:00,23.7,12.1,30.05,West,263,3.0,5.6,57,0.00,,,0.00,WSDL version 420,2013-03-03 06:22:00,
2013-03-03 01:27:00,23.6,12.0,30.05,WSW,248,2.7,5.6,56,0.00,,,0.00,WSDL version 420,2013-03-03 06:27:00,
2013-03-03 01:32:00,23.5,11.5,30.05,West,270,2.4,5.6,55,0.00,,,0.00,WSDL version 420,2013-03-03 06:32:00,
2013-03-03 01:37:00,23.4,11.3,30.05,WSW,245,2.9,6.3,56,0.00,,,0.00,WSDL version 420,2013-03-03 06:37:00,
2013-03-03 01:42:00,23.3,11.2,30.04,SW,231,5.8,8.1,55,0.00,,,0.00,WSDL version 420,2013-03-03 06:42:00,
2013-03-03 01:47:00,23.2,10.9,30.04,WSW,250,4.5,8.1,55,0.00,,,0.00,WSDL version 420,2013-03-03 06:47:00,
2013-03-03 01:52:00,23.0,10.8,30.04,West,260,3.0,8.5,55,0.00,,,0.00,WSDL version 420,2013-03-03 06:52:00,
2013-03-03 01:57:00,23.0,11.0,30.04,West,268,2.8,8.5,56,0.00,,,0.00,WSDL version 420,2013-03-03 06:57:00,
2013-03-03 02:02:00,23.0,11.1,30.04,West,259,2.4,6.3,56,0.00,,,0.00,WSDL version 420,2013-03-03 07:02:00,
2013-03-03 02:07:00,22.9,11.0,30.04,North,354,3.4,6.3,56,0.00,,,0.00,WSDL version 420,2013-03-03 07:07:00,
2013-03-03 02:12:00,22.8,11.1,30.04,WSW,245,2.3,5.8,57,0.00,,,0.00,WSDL version 420,2013-03-03 07:12:00,
2013-03-03 02:17:00,22.8,11.2,30.05,SW,231,1.9,5.4,57,0.00,,,0.00,WSDL version 420,2013-03-03 07:17:00,
2013-03-03 02:22:00,22.8,11.3,30.05,SW,231,2.8,5.4,57,0.00,,,0.00,WSDL version 420,2013-03-03 07:22:00,
2013-03-03 02:27:00,22.8,11.4,30.05,SW,231,4.2,7.4,58,0.00,,,0.00,WSDL version 420,2013-03-03 07:27:00,
2013-03-03 02:32:00,22.8,11.6,30.05,SSE,150,1.9,7.4,58,0.00,,,0.00,WSDL version 420,2013-03-03 07:32:00,
2013-03-03 02:37:00,22.8,11.4,30.05,West,267,4.4,9.4,58,0.00,,,0.00,WSDL version 420,2013-03-03 07:37:00,
2013-03-03 02:42:00,22.8,11.5,30.05,WSW,243,4.2,9.4,58,0.00,,,0.00,WSDL version 420,2013-03-03 07:42:00,
2013-03-03 02:47:00,22.8,11.6,30.05,WSW,248,5.9,7.6,57,0.00,,,0.00,WSDL version 420,2013-03-03 07:47:00,
2013-03-03 02:52:00,22.7,11.2,30.02,WNW,293,4.7,7.6,57,0.00,,,0.00,WSDL version 420,2013-03-03 07:52:00,
2013-03-03 02:57:00,22.6,11.4,30.02,West,275,3.4,6.5,58,0.00,,,0.00,WSDL version 420,2013-03-03 07:57:00,
2013-03-03 03:02:00,22.6,11.5,30.02,West,270,4.7,7.4,58,0.00,,,0.00,WSDL version 420,2013-03-03 08:02:00,
2013-03-03 03:07:00,22.6,11.3,30.02,SW,233,3.9,8.1,58,0.00,,,0.00,WSDL version 420,2013-03-03 08:07:00,
2013-03-03 03:12:00,22.5,11.2,30.02,WSW,245,4.3,8.1,58,0.00,,,0.00,WSDL version 420,2013-03-03 08:12:00,
2013-03-03 03:17:00,22.5,11.0,30.02,SW,228,3.7,10.5,57,0.00,,,0.00,WSDL version 420,2013-03-03 08:17:00,
2013-03-03 03:22:00,22.5,10.9,30.02,WSW,258,5.2,10.5,57,0.00,,,0.00,WSDL version 420,2013-03-03 08:22:00,
2013-03-03 03:27:00,22.5,10.8,30.02,WNW,283,3.0,10.5,56,0.00,,,0.00,WSDL version 420,2013-03-03 08:27:00,
2013-03-03 03:32:00,22.3,10.3,30.02,WNW,283,6.0,12.1,55,0.00,,,0.00,WSDL version 420,2013-03-03 08:32:00,
2013-03-03 03:37:00,22.3,9.8,30.02,West,273,4.1,12.1,54,0.00,,,0.00,WSDL version 420,2013-03-03 08:37:00,
2013-03-03 03:42:00,22.3,9.7,30.02,WSW,250,4.8,11.0,54,0.00,,,0.00,WSDL version 420,2013-03-03 08:42:00,
2013-03-03 03:47:00,22.2,9.6,30.02,West,267,6.0,12.5,54,0.00,,,0.00,WSDL version 420,2013-03-03 08:47:00,
2013-03-03 03:52:00,22.1,9.7,30.02,West,275,4.2,12.5,55,0.00,,,0.00,WSDL version 420,2013-03-03 08:52:00,
2013-03-03 03:57:00,22.1,9.9,30.02,West,270,4.8,7.8,55,0.00,,,0.00,WSDL version 420,2013-03-03 08:57:00,
2013-03-03 04:02:00,22.1,9.7,30.02,West,270,4.8,8.1,54,0.00,,,0.00,WSDL version 420,2013-03-03 09:02:00,
2013-03-03 04:07:00,21.9,9.3,30.03,SSW,210,3.6,8.1,54,0.00,,,0.00,WSDL version 420,2013-03-03 09:07:00,
2013-03-03 04:12:00,21.9,9.3,30.02,WSW,254,3.1,5.4,54,0.00,,,0.00,WSDL version 420,2013-03-03 09:12:00,
2013-03-03 04:17:00,21.9,9.5,30.02,West,275,3.2,8.1,55,0.00,,,0.00,WSDL version 420,2013-03-03 09:17:00,
2013-03-03 04:22:00,21.9,9.6,30.02,WNW,296,4.2,8.5,54,0.00,,,0.00,WSDL version 420,2013-03-03 09:22:00,
2013-03-03 04:27:00,21.9,9.6,30.02,West,275,3.8,11.0,55,0.00,,,0.00,WSDL version 420,2013-03-03 09:27:00,
2013-03-03 04:32:00,21.9,9.6,30.02,SW,228,3.1,11.0,55,0.00,,,0.00,WSDL version 420,2013-03-03 09:32:00,
2013-03-03 04:37:00,21.9,9.7,30.03,WNW,295,4.1,9.6,55,0.00,,,0.00,WSDL version 420,2013-03-03 09:37:00,
2013-03-03 04:42:00,21.8,9.6,30.03,SSW,203,3.1,8.7,55,0.00,,,0.00,WSDL version 420,2013-03-03 09:42:00,
2013-03-03 04:47:00,21.7,9.6,30.03,West,273,7.2,12.3,56,0.00,,,0.00,WSDL version 420,2013-03-03 09:47:00,
2013-03-03 04:52:00,21.7,10.2,30.03,SW,228,5.8,12.3,57,0.00,,,0.00,WSDL version 420,2013-03-03 09:52:00,
2013-03-03 04:57:00,21.7,10.4,30.03,SW,228,4.9,9.8,58,0.00,,,0.00,WSDL version 420,2013-03-03 09:57:00,
2013-03-03 05:02:00,21.7,10.9,30.03,West,260,3.7,8.5,59,0.00,,,0.00,WSDL version 420,2013-03-03 10:02:00,
2013-03-03 05:07:00,21.7,11.1,30.03,WNW,284,3.8,8.1,59,0.00,,,0.00,WSDL version 420,2013-03-03 10:07:00,
2013-03-03 05:12:00,21.7,11.3,30.03,WSW,256,5.0,8.1,60,0.00,,,0.00,WSDL version 420,2013-03-03 10:12:00,
2013-03-03 05:17:00,21.7,11.4,30.03,SSW,211,5.2,9.6,60,0.00,,,0.00,WSDL version 420,2013-03-03 10:17:00,
2013-03-03 05:22:00,21.6,11.1,30.03,West,267,3.4,9.8,60,0.00,,,0.00,WSDL version 420,2013-03-03 10:22:00,
2013-03-03 05:27:00,21.6,11.1,30.03,West,281,2.2,9.8,60,0.00,,,0.00,WSDL version 420,2013-03-03 10:27:00,
2013-03-03 05:32:00,21.5,11.0,30.03,West,264,4.8,7.6,60,0.00,,,0.00,WSDL version 420,2013-03-03 10:32:00,
2013-03-03 05:37:00,21.5,11.0,30.06,WSW,242,3.6,7.6,60,0.00,,,0.00,WSDL version 420,2013-03-03 10:37:00,
2013-03-03 05:42:00,21.4,11.0,30.06,West,280,3.0,6.9,61,0.00,,,0.00,WSDL version 420,2013-03-03 10:42:00,
2013-03-03 05:47:00,21.3,11.2,30.06,WSW,248,3.7,9.8,61,0.00,,,0.00,WSDL version 420,2013-03-03 10:47:00,
2013-03-03 05:52:00,21.3,10.8,30.03,West,262,2.5,9.8,60,0.00,,,0.00,WSDL version 420,2013-03-03 10:52:00,
2013-03-03 05:57:00,21.2,10.7,30.03,North,3,2.9,6.5,59,0.00,,,0.00,WSDL version 420,2013-03-03 10:57:00,
2013-03-03 06:02:00,21.2,10.6,30.03,West,273,3.9,6.5,60,0.00,,,0.00,WSDL version 420,2013-03-03 11:02:00,
2013-03-03 06:07:00,21.1,10.6,30.07,West,281,2.4,6.5,60,0.00,,,0.00,WSDL version 420,2013-03-03 11:07:00,
2013-03-03 06:12:00,21.0,10.5,30.07,WSW,244,4.4,8.7,59,-99.99,,,-99.99,WSDL version 420,2013-03-03 11:12:00,
2013-03-03 06:17:00,20.8,10.0,30.07,SW,230,3.8,8.7,59,0.00,,,0.00,WSDL version 420,2013-03-03 11:17:00,
2013-03-03 06:22:00,20.7,9.6,30.04,West,280,1.9,8.1,58,0.00,,,0.00,WSDL version 420,2013-03-03 11:22:00,
2013-03-03 06:27:00,20.6,9.5,30.04,WSW,239,4.8,8.1,58,0.00,,,0.00,WSDL version 420,2013-03-03 11:27:00,
2013-03-03 06:32:00,20.5,9.4,30.04,SW,231,6.0,10.1,58,0.00,,,0.00,WSDL version 420,2013-03-03 11:32:00,
2013-03-03 06:37:00,20.5,9.4,30.07,WSW,255,2.8,10.1,58,0.00,,,0.00,WSDL version 420,2013-03-03 11:37:00,
2013-03-03 06:42:00,20.3,9.3,30.07,ESE,113,2.2,6.3,58,0.00,,,0.00,WSDL version 420,2013-03-03 11:42:00,
2013-03-03 06:47:00,20.3,9.2,30.07,West,263,3.3,6.3,58,0.00,,,0.00,WSDL version 420,2013-03-03 11:47:00,
2013-03-03 06:52:00,20.3,9.3,30.07,West,268,3.2,6.3,59,0.00,,,0.00,WSDL version 420,2013-03-03 11:52:00,
2013-03-03 06:57:00,20.3,9.3,30.07,West,280,5.1,7.8,57,0.00,,,0.00,WSDL version 420,2013-03-03 11:57:00,
2013-03-03 07:02:00,20.3,9.0,30.07,WSW,250,2.3,7.8,58,0.00,,,0.00,WSDL version 420,2013-03-03 12:02:00,
2013-03-03 07:07:00,20.3,8.9,30.07,SE,146,2.4,5.6,57,0.00,,,0.00,WSDL version 420,2013-03-03 12:07:00,
2013-03-03 07:12:00,20.3,8.9,30.07,West,260,4.3,10.5,57,0.00,,,0.00,WSDL version 420,2013-03-03 12:12:00,
2013-03-03 07:17:00,20.3,8.7,30.07,NW,305,2.9,10.5,56,0.00,,,0.00,WSDL version 420,2013-03-03 12:17:00,
2013-03-03 07:22:00,20.5,8.7,30.07,WNW,303,3.1,5.8,56,0.00,,,0.00,WSDL version 420,2013-03-03 12:22:00,
2013-03-03 07:27:00,20.6,8.5,30.07,SW,222,3.8,6.5,55,0.00,,,0.00,WSDL version 420,2013-03-03 12:27:00,
2013-03-03 07:32:00,20.8,8.7,30.07,South,180,4.1,7.6,55,0.00,,,0.00,WSDL version 420,2013-03-03 12:32:00,
2013-03-03 07:37:00,21.0,8.8,30.07,West,265,4.6,7.6,55,0.00,,,0.00,WSDL version 420,2013-03-03 12:37:00,
2013-03-03 07:42:00,21.2,9.0,30.07,WSW,257,3.4,8.7,55,0.00,,,0.00,WSDL version 420,2013-03-03 12:42:00,
2013-03-03 07:47:00,21.3,8.9,30.07,SW,220,4.7,10.3,54,0.00,,,0.00,WSDL version 420,2013-03-03 12:47:00,
2013-03-03 07:52:00,21.5,8.9,30.07,WSW,250,3.4,10.3,54,0.00,,,0.00,WSDL version 420,2013-03-03 12:52:00,
2013-03-03 07:57:00,21.8,9.2,30.07,SSW,198,2.3,7.6,54,0.00,,,0.00,WSDL version 420,2013-03-03 12:57:00,
2013-03-03 08:02:00,22.0,9.4,30.07,SSW,209,2.1,7.6,54,0.00,,,0.00,WSDL version 420,2013-03-03 13:02:00,
2013-03-03 08:07:00,22.2,9.2,30.07,WNW,288,5.3,8.5,53,0.00,,,0.00,WSDL version 420,2013-03-03 13:07:00,
2013-03-03 08:12:00,23.0,9.8,30.07,WSW,248,5.2,8.7,52,0.00,,,0.00,WSDL version 420,2013-03-03 13:12:00,
2013-03-03 08:17:00,23.6,10.2,30.07,West,262,3.4,8.7,52,0.00,,,0.00,WSDL version 420,2013-03-03 13:17:00,
2013-03-03 08:22:00,24.5,10.9,30.07,South,185,3.1,9.6,51,0.00,,,0.00,WSDL version 420,2013-03-03 13:22:00,
2013-03-03 08:27:00,24.7,10.4,30.07,WSW,253,3.2,9.6,50,0.00,,,0.00,WSDL version 420,2013-03-03 13:27:00,
2013-03-03 08:32:00,25.1,10.5,30.07,SE,130,1.8,7.2,50,0.00,,,0.00,WSDL version 420,2013-03-03 13:32:00,
2013-03-03 08:37:00,25.0,10.3,30.07,WNW,293,3.1,6.3,48,0.00,,,0.00,WSDL version 420,2013-03-03 13:37:00,
2013-03-03 08:42:00,25.1,10.2,30.07,North,357,2.0,6.3,49,0.00,,,0.00,WSDL version 420,2013-03-03 13:42:00,
2013-03-03 08:47:00,25.2,10.5,30.07,NE,34,2.7,8.7,49,0.00,,,0.00,WSDL version 420,2013-03-03 13:47:00,
2013-03-03 08:52:00,25.2,10.6,30.07,NNW,343,3.5,8.7,49,0.00,,,0.00,WSDL version 420,2013-03-03 13:52:00,
2013-03-03 08:57:00,25.2,10.2,30.07,West,278,2.3,8.7,49,0.00,,,0.00,WSDL version 420,2013-03-03 13:57:00,
2013-03-03 09:02:00,25.5,10.8,30.07,West,262,2.1,5.6,49,0.00,,,0.00,WSDL version 420,2013-03-03 14:02:00,
2013-03-03 09:07:00,26.1,10.8,30.10,West,265,5.3,10.5,47,0.00,,,0.00,WSDL version 420,2013-03-03 14:07:00,
2013-03-03 09:12:00,26.3,10.3,30.10,West,280,5.3,10.5,47,0.00,,,0.00,WSDL version 420,2013-03-03 14:12:00,
2013-03-03 09:17:00,26.8,10.9,30.10,SW,231,4.0,9.6,47,0.00,,,0.00,WSDL version 420,2013-03-03 14:17:00,
2013-03-03 09:22:00,28.0,11.6,30.09,West,278,3.6,9.8,45,0.00,,,0.00,WSDL version 420,2013-03-03 14:22:00,
2013-03-03 09:27:00,28.6,11.7,30.09,West,278,4.1,12.5,45,0.00,,,0.00,WSDL version 420,2013-03-03 14:27:00,
2013-03-03 09:32:00,28.4,11.4,30.09,South,191,3.1,12.5,44,0.00,,,0.00,WSDL version 420,2013-03-03 14:32:00,
2013-03-03 09:37:00,28.0,11.4,30.10,WSW,245,3.1,6.3,45,0.00,,,0.00,WSDL version 420,2013-03-03 14:37:00,
2013-03-03 09:42:00,27.6,10.8,30.10,NW,318,2.7,7.8,45,0.00,,,0.00,WSDL version 420,2013-03-03 14:42:00,
2013-03-03 09:47:00,27.8,11.1,30.10,SW,217,3.5,7.8,45,0.00,,,0.00,WSDL version 420,2013-03-03 14:47:00,
2013-03-03 09:52:00,28.3,11.8,30.09,WNW,293,2.1,6.3,45,0.00,,,0.00,WSDL version 420,2013-03-03 14:52:00,
2013-03-03 09:57:00,28.6,11.6,30.09,North,5,2.4,9.8,44,0.00,,,0.00,WSDL version 420,2013-03-03 14:57:00,
2013-03-03 10:02:00,28.9,11.8,30.09,SW,231,4.1,9.8,44,0.00,,,0.00,WSDL version 420,2013-03-03 15:02:00,
2013-03-03 10:07:00,29.4,12.1,30.09,WSW,243,5.1,9.8,43,0.00,,,0.00,WSDL version 420,2013-03-03 15:07:00,
2013-03-03 10:12:00,29.5,11.9,30.09,WSW,242,4.9,9.8,43,0.00,,,0.00,WSDL version 420,2013-03-03 15:12:00,
2013-03-03 10:17:00,30.5,12.7,30.09,SSE,153,2.7,8.5,42,0.00,,,0.00,WSDL version 420,2013-03-03 15:17:00,
2013-03-03 10:22:00,31.3,13.2,30.09,West,264,4.1,10.1,42,0.00,,,0.00,WSDL version 420,2013-03-03 15:22:00,
2013-03-03 10:27:00,31.7,13.2,30.09,SW,228,5.7,13.0,41,0.00,,,0.00,WSDL version 420,2013-03-03 15:27:00,
2013-03-03 10:32:00,31.1,12.5,30.09,SW,223,4.2,13.0,41,0.00,,,0.00,WSDL version 420,2013-03-03 15:32:00,
2013-03-03 10:37:00,31.1,12.4,30.09,West,276,4.4,10.3,41,0.00,,,0.00,WSDL version 420,2013-03-03 15:37:00,
2013-03-03 10:42:00,31.2,12.5,30.09,ENE,76,3.2,10.3,41,0.00,,,0.00,WSDL version 420,2013-03-03 15:42:00,
2013-03-03 10:47:00,32.1,12.3,30.09,SSW,211,4.8,9.6,41,0.00,,,0.00,WSDL version 420,2013-03-03 15:47:00,
2013-03-03 10:52:00,32.1,11.9,30.05,WSW,243,3.8,8.7,40,0.00,,,0.00,WSDL version 420,2013-03-03 15:52:00,
2013-03-03 10:57:00,32.3,11.2,30.06,WSW,258,2.6,5.6,40,0.00,,,0.00,WSDL version 420,2013-03-03 15:57:00,
2013-03-03 11:02:00,32.5,10.9,30.05,SW,217,3.1,9.6,40,0.00,,,0.00,WSDL version 420,2013-03-03 16:02:00,
2013-03-03 11:07:00,32.9,11.1,30.09,SSW,210,3.2,9.6,40,0.00,,,0.00,WSDL version 420,2013-03-03 16:07:00,
2013-03-03 11:12:00,33.4,11.7,30.09,South,186,3.2,8.7,40,0.00,,,0.00,WSDL version 420,2013-03-03 16:12:00,
2013-03-03 11:17:00,33.6,11.1,30.09,NW,320,5.1,7.6,38,0.00,,,0.00,WSDL version 420,2013-03-03 16:17:00,
2013-03-03 11:22:00,33.5,11.0,30.09,West,270,4.4,7.6,38,0.00,,,0.00,WSDL version 420,2013-03-03 16:22:00,
2013-03-03 11:27:00,33.4,10.7,30.09,West,268,3.8,10.7,39,0.00,,,0.00,WSDL version 420,2013-03-03 16:27:00,
2013-03-03 11:32:00,33.5,11.0,30.09,WNW,285,1.4,10.7,40,0.00,,,0.00,WSDL version 420,2013-03-03 16:32:00,
2013-03-03 11:37:00,34.1,11.9,30.08,West,259,5.3,7.8,38,0.00,,,0.00,WSDL version 420,2013-03-03 16:37:00,
2013-03-03 11:42:00,33.9,10.9,30.09,WSW,245,4.2,7.8,37,0.00,,,0.00,WSDL version 420,2013-03-03 16:42:00,
2013-03-03 11:47:00,33.7,10.3,30.09,WNW,295,3.5,6.0,38,0.00,,,0.00,WSDL version 420,2013-03-03 16:47:00,
2013-03-03 11:52:00,34.1,10.2,30.05,WNW,290,3.4,12.8,35,0.00,,,0.00,WSDL version 420,2013-03-03 16:52:00,
2013-03-03 11:57:00,33.9,9.9,30.05,North,360,3.9,12.8,36,0.00,,,0.00,WSDL version 420,2013-03-03 16:57:00,
2013-03-03 12:02:00,33.8,9.4,30.05,WSW,243,4.3,8.5,35,0.00,,,0.00,WSDL version 420,2013-03-03 17:02:00,
2013-03-03 12:07:00,33.7,9.5,30.09,SSE,148,2.6,7.6,35,0.00,,,0.00,WSDL version 420,2013-03-03 17:07:00,
2013-03-03 12:12:00,34.3,10.1,30.09,WSW,248,3.7,7.6,37,0.00,,,0.00,WSDL version 420,2013-03-03 17:12:00,
2013-03-03 12:17:00,34.8,10.6,30.09,WSW,240,3.9,7.2,37,0.00,,,0.00,WSDL version 420,2013-03-03 17:17:00,
2013-03-03 12:22:00,34.8,9.8,30.09,WSW,239,3.3,7.4,35,0.00,,,0.00,WSDL version 420,2013-03-03 17:22:00,
2013-03-03 12:27:00,34.9,10.5,30.09,ESE,118,3.4,7.4,37,0.00,,,0.00,WSDL version 420,2013-03-03 17:27:00,
2013-03-03 12:32:00,34.7,9.2,30.09,WNW,302,3.9,8.5,34,0.00,,,0.00,WSDL version 420,2013-03-03 17:32:00,
2013-03-03 12:37:00,34.7,8.8,30.09,East,93,4.1,9.8,34,0.00,,,0.00,WSDL version 420,2013-03-03 17:37:00,
2013-03-03 12:42:00,33.7,7.7,30.09,NW,315,4.4,9.8,33,0.00,,,0.00,WSDL version 420,2013-03-03 17:42:00,
2013-03-03 12:47:00,33.9,8.0,30.09,West,259,5.1,8.7,33,0.00,,,0.00,WSDL version 420,2013-03-03 17:47:00,
2013-03-03 12:52:00,34.0,7.9,30.05,NW,305,3.5,7.8,33,0.00,,,0.00,WSDL version 420,2013-03-03 17:52:00,
2013-03-03 12:57:00,34.5,8.6,30.05,WSW,248,4.2,7.6,34,0.00,,,0.00,WSDL version 420,2013-03-03 17:57:00,
2013-03-03 13:02:00,34.3,8.2,30.05,WSW,253,4.6,10.3,33,0.00,,,0.00,WSDL version 420,2013-03-03 18:02:00,
2013-03-03 13:07:00,34.3,8.5,30.05,WSW,257,3.5,10.3,34,0.00,,,0.00,WSDL version 420,2013-03-03 18:07:00,
2013-03-03 13:12:00,35.4,9.7,30.05,South,170,3.7,9.6,33,0.00,,,0.00,WSDL version 420,2013-03-03 18:12:00,
2013-03-03 13:17:00,34.7,8.8,30.05,WNW,296,3.8,8.1,34,0.00,,,0.00,WSDL version 420,2013-03-03 18:17:00,
2013-03-03 13:22:00,34.7,8.5,30.09,SW,235,4.2,9.8,33,0.00,,,0.00,WSDL version 420,2013-03-03 18:22:00,
2013-03-03 13:27:00,35.0,9.1,30.09,WNW,289,4.1,9.8,33,0.00,,,0.00,WSDL version 420,2013-03-03 18:27:00,
2013-03-03 13:32:00,34.8,8.6,30.09,SW,219,4.2,11.9,33,0.00,,,0.00,WSDL version 420,2013-03-03 18:32:00,
2013-03-03 13:37:00,33.9,7.6,30.09,NNW,340,4.5,25.1,33,0.00,,,0.00,WSDL version 420,2013-03-03 18:37:00,
2013-03-03 13:42:00,34.2,8.1,30.09,South,177,2.4,25.1,33,0.00,,,0.00,WSDL version 420,2013-03-03 18:42:00,
2013-03-03 13:47:00,33.8,8.2,30.09,WSW,256,4.8,9.8,34,0.00,,,0.00,WSDL version 420,2013-03-03 18:47:00,
2013-03-03 13:52:00,35.0,9.3,30.06,WSW,250,2.9,9.8,34,0.00,,,0.00,WSDL version 420,2013-03-03 18:52:00,
2013-03-03 13:57:00,34.8,8.3,30.06,North,3,3.2,7.2,33,0.00,,,0.00,WSDL version 420,2013-03-03 18:57:00,
2013-03-03 14:02:00,35.8,9.5,30.05,SSW,193,2.8,7.2,33,0.00,,,0.00,WSDL version 420,2013-03-03 19:02:00,
2013-03-03 14:07:00,35.2,8.4,30.05,NE,39,5.0,11.4,32,0.00,,,0.00,WSDL version 420,2013-03-03 19:07:00,
2013-03-03 14:12:00,34.7,8.0,30.06,SSE,155,4.2,11.4,32,0.00,,,0.00,WSDL version 420,2013-03-03 19:12:00,
2013-03-03 14:17:00,34.8,8.0,30.06,South,180,2.7,10.7,32,0.00,,,0.00,WSDL version 420,2013-03-03 19:17:00,
2013-03-03 14:22:00,34.6,7.8,30.06,West,275,3.4,7.4,32,0.00,,,0.00,WSDL version 420,2013-03-03 19:22:00,
2013-03-03 14:27:00,33.5,7.4,30.06,NW,308,4.9,17.4,33,0.00,,,0.00,WSDL version 420,2013-03-03 19:27:00,
2013-03-03 14:32:00,33.4,7.4,30.06,SSW,197,3.9,17.4,33,0.00,,,0.00,WSDL version 420,2013-03-03 19:32:00,
2013-03-03 14:37:00,33.5,8.3,30.06,West,268,3.8,8.7,34,0.00,,,0.00,WSDL version 420,2013-03-03 19:37:00,
2013-03-03 14:42:00,33.9,7.8,30.06,WSW,239,4.8,7.4,33,0.00,,,0.00,WSDL version 420,2013-03-03 19:42:00,
2013-03-03 14:47:00,34.1,8.2,30.06,West,268,3.8,7.4,33,0.00,,,0.00,WSDL version 420,2013-03-03 19:47:00,
2013-03-03 14:52:00,33.7,7.8,30.06,NNW,343,3.5,8.9,33,0.00,,,0.00,WSDL version 420,2013-03-03 19:52:00,
2013-03-03 14:57:00,33.6,7.7,30.06,WSW,243,4.2,12.3,33,0.00,,,0.00,WSDL version 420,2013-03-03 19:57:00,
2013-03-03 15:02:00,32.7,7.1,30.06,NNE,25,4.0,12.3,34,0.00,,,0.00,WSDL version 420,2013-03-03 20:02:00,
2013-03-03 15:07:00,32.7,7.6,30.06,NW,304,3.9,10.7,34,0.00,,,0.00,WSDL version 420,2013-03-03 20:07:00,
2013-03-03 15:12:00,31.9,9.2,30.06,NNW,328,2.9,7.8,35,0.00,,,0.00,WSDL version 420,2013-03-03 20:12:00,
2013-03-03 15:17:00,32.3,7.8,30.06,South,180,2.4,7.8,36,0.00,,,0.00,WSDL version 420,2013-03-03 20:17:00,
2013-03-03 15:22:00,32.3,7.3,30.09,WSW,243,4.9,11.2,35,0.00,,,0.00,WSDL version 420,2013-03-03 20:22:00,
2013-03-03 15:27:00,32.2,8.3,30.09,WSW,253,3.7,11.2,35,0.00,,,0.00,WSDL version 420,2013-03-03 20:27:00,
2013-03-03 15:32:00,31.9,9.4,30.10,SSW,198,4.6,7.8,35,0.00,,,0.00,WSDL version 420,2013-03-03 20:32:00,
2013-03-03 15:37:00,31.8,9.4,30.10,WNW,283,3.5,7.8,35,0.00,,,0.00,WSDL version 420,2013-03-03 20:37:00,
2013-03-03 15:42:00,31.3,9.3,30.10,ENE,62,4.5,6.5,35,0.00,,,0.00,WSDL version 420,2013-03-03 20:42:00,
2013-03-03 15:47:00,31.1,9.4,30.10,SSW,195,5.1,12.1,36,0.00,,,0.00,WSDL version 420,2013-03-03 20:47:00,
2013-03-03 15:52:00,31.0,9.8,30.10,SW,225,4.7,12.1,36,0.00,,,0.00,WSDL version 420,2013-03-03 20:52:00,
2013-03-03 15:57:00,30.4,9.3,30.10,WSW,253,3.5,9.6,37,0.00,,,0.00,WSDL version 420,2013-03-03 20:57:00,
2013-03-03 16:02:00,30.2,9.5,30.10,NW,312,3.6,7.8,37,0.00,,,0.00,WSDL version 420,2013-03-03 21:02:00,
2013-03-03 16:07:00,30.0,10.2,30.10,SSE,160,1.6,9.8,41,0.00,,,0.00,WSDL version 420,2013-03-03 21:07:00,
2013-03-03 16:12:00,29.9,10.3,30.10,SW,215,5.1,10.7,38,0.00,,,0.00,WSDL version 420,2013-03-03 21:12:00,
2013-03-03 16:17:00,29.6,9.9,30.10,South,186,2.1,10.7,39,0.00,,,0.00,WSDL version 420,2013-03-03 21:17:00,
2013-03-03 16:22:00,29.8,10.2,30.10,WSW,258,3.4,7.4,39,0.00,,,0.00,WSDL version 420,2013-03-03 21:22:00,
2013-03-03 16:27:00,29.9,10.8,30.10,WSW,257,3.9,8.1,40,0.00,,,0.00,WSDL version 420,2013-03-03 21:27:00,
2013-03-03 16:32:00,29.4,10.1,30.10,WSW,250,6.2,9.4,40,0.00,,,0.00,WSDL version 420,2013-03-03 21:32:00,
2013-03-03 16:37:00,28.5,9.6,30.10,West,267,4.5,10.5,40,0.00,,,0.00,WSDL version 420,2013-03-03 21:37:00,
2013-03-03 16:42:00,28.7,9.8,30.10,SSE,158,4.8,11.0,40,0.00,,,0.00,WSDL version 420,2013-03-03 21:42:00,
2013-03-03 16:47:00,28.2,9.7,30.10,WNW,285,2.4,11.0,41,0.00,,,0.00,WSDL version 420,2013-03-03 21:47:00,
2013-03-03 16:52:00,28.6,10.1,30.10,East,96,3.3,7.2,41,0.00,,,0.00,WSDL version 420,2013-03-03 21:52:00,
2013-03-03 16:57:00,28.6,10.1,30.10,WNW,300,3.2,9.4,41,0.00,,,0.00,WSDL version 420,2013-03-03 21:57:00,
2013-03-03 17:02:00,27.9,9.5,30.10,WSW,256,6.3,9.4,41,0.00,,,0.00,WSDL version 420,2013-03-03 22:02:00,
2013-03-03 17:07:00,27.4,9.0,30.11,WNW,288,3.6,8.5,41,0.00,,,0.00,WSDL version 420,2013-03-03 22:07:00,
2013-03-03 17:12:00,27.4,9.0,30.11,NE,53,4.3,7.8,42,0.00,,,0.00,WSDL version 420,2013-03-03 22:12:00,
2013-03-03 17:17:00,27.0,8.8,30.11,SW,231,2.5,7.8,42,0.00,,,0.00,WSDL version 420,2013-03-03 22:17:00,
2013-03-03 17:22:00,26.8,8.8,30.11,SSW,213,2.2,7.4,42,0.00,,,0.00,WSDL version 420,2013-03-03 22:22:00,
2013-03-03 17:27:00,26.5,8.7,30.11,West,264,4.0,6.3,42,0.00,,,0.00,WSDL version 420,2013-03-03 22:27:00,
2013-03-03 17:32:00,26.3,8.8,30.11,SW,228,2.6,6.5,43,0.00,,,0.00,WSDL version 420,2013-03-03 22:32:00,
2013-03-03 17:37:00,26.2,8.8,30.11,NE,34,3.0,8.7,43,0.00,,,0.00,WSDL version 420,2013-03-03 22:37:00,
2013-03-03 17:42:00,25.9,8.7,30.11,WNW,303,4.2,8.7,44,0.00,,,0.00,WSDL version 420,2013-03-03 22:42:00,
2013-03-03 17:47:00,25.9,9.0,30.11,North,352,2.4,7.6,44,0.00,,,0.00,WSDL version 420,2013-03-03 22:47:00,
2013-03-03 17:52:00,25.8,9.0,30.11,WNW,288,5.4,10.3,45,0.00,,,0.00,WSDL version 420,2013-03-03 22:52:00,
2013-03-03 17:57:00,25.8,9.2,30.11,SSW,205,2.8,10.3,44,0.00,,,0.00,WSDL version 420,2013-03-03 22:57:00,
2013-03-03 18:02:00,25.8,9.4,30.11,East,84,2.3,5.4,45,0.00,,,0.00,WSDL version 420,2013-03-03 23:02:00,
2013-03-03 18:07:00,25.7,9.7,30.11,East,98,2.2,6.5,46,0.00,,,0.00,WSDL version 420,2013-03-03 23:07:00,
2013-03-03 18:12:00,25.4,9.4,30.11,West,259,4.3,9.2,46,0.00,,,0.00,WSDL version 420,2013-03-03 23:12:00,
2013-03-03 18:17:00,25.3,9.1,30.11,WSW,248,3.6,9.2,46,0.00,,,0.00,WSDL version 420,2013-03-03 23:17:00,
2013-03-03 18:22:00,25.2,9.2,30.11,SW,233,4.6,7.4,46,0.00,,,0.00,WSDL version 420,2013-03-03 23:22:00,
2013-03-03 18:27:00,25.0,9.0,30.11,NW,308,4.1,7.4,46,0.00,,,0.00,WSDL version 420,2013-03-03 23:27:00,
2013-03-03 18:32:00,24.8,9.2,30.11,SSE,149,3.9,6.5,47,0.00,,,0.00,WSDL version 420,2013-03-03 23:32:00,
2013-03-03 18:37:00,24.8,9.6,30.11,SW,214,4.3,10.5,48,0.00,,,0.00,WSDL version 420,2013-03-03 23:37:00,
2013-03-03 18:42:00,24.7,9.7,30.11,West,273,5.4,10.5,48,0.00,,,0.00,WSDL version 420,2013-03-03 23:42:00,
2013-03-03 18:47:00,24.6,9.5,30.11,NE,37,2.5,8.5,48,0.00,,,0.00,WSDL version 420,2013-03-03 23:47:00,
2013-03-03 18:52:00,24.4,9.3,30.15,North,357,2.9,7.6,48,0.00,,,0.00,WSDL version 420,2013-03-03 23:52:00,
2013-03-03 18:57:00,24.4,9.4,30.15,WSW,253,4.4,13.6,48,0.00,,,0.00,WSDL version 420,2013-03-03 23:57:00,
2013-03-03 19:02:00,24.4,9.3,30.15,NW,305,4.2,13.6,48,0.00,,,0.00,WSDL version 420,2013-03-04 00:02:00,
2013-03-03 19:07:00,24.4,9.4,30.15,NW,309,3.6,8.1,48,0.00,,,0.00,WSDL version 420,2013-03-04 00:07:00,
2013-03-03 19:12:00,24.4,9.6,30.15,NW,305,4.0,11.2,48,0.00,,,0.00,WSDL version 420,2013-03-04 00:12:00,
2013-03-03 19:17:00,24.2,9.2,30.15,WNW,303,4.3,11.2,48,0.00,,,0.00,WSDL version 420,2013-03-04 00:17:00,
2013-03-03 19:22:00,24.1,9.4,30.11,WSW,238,4.0,8.5,49,0.00,,,0.00,WSDL version 420,2013-03-04 00:22:00,
2013-03-03 19:27:00,24.1,9.4,30.11,West,263,5.0,10.3,49,0.00,,,0.00,WSDL version 420,2013-03-04 00:27:00,
2013-03-03 19:32:00,24.1,9.1,30.11,SE,132,4.3,10.3,48,0.00,,,0.00,WSDL version 420,2013-03-04 00:32:00,
2013-03-03 19:37:00,24.1,9.3,30.15,NNW,330,2.9,10.1,49,0.00,,,0.00,WSDL version 420,2013-03-04 00:37:00,
2013-03-03 19:42:00,24.1,9.6,30.15,WSW,255,7.1,11.9,50,0.00,,,0.00,WSDL version 420,2013-03-04 00:42:00,
2013-03-03 19:47:00,24.0,9.8,30.15,SSW,194,4.3,12.1,50,0.00,,,0.00,WSDL version 420,2013-03-04 00:47:00,
2013-03-03 19:52:00,23.9,9.6,30.15,West,273,4.2,12.1,50,0.00,,,0.00,WSDL version 420,2013-03-04 00:52:00,
2013-03-03 19:57:00,23.9,10.0,30.15,West,270,5.1,11.0,50,0.00,,,0.00,WSDL version 420,2013-03-04 00:57:00,
2013-03-03 20:02:00,23.9,9.7,30.14,WSW,255,5.5,10.7,50,0.00,,,0.00,WSDL version 420,2013-03-04 01:02:00,
2013-03-03 20:07:00,23.8,9.4,30.14,WSW,248,8.1,10.7,50,0.00,,,0.00,WSDL version 420,2013-03-04 01:07:00,
2013-03-03 20:12:00,23.6,8.9,30.14,West,275,7.4,11.2,48,0.00,,,0.00,WSDL version 420,2013-03-04 01:12:00,
2013-03-03 20:17:00,23.5,8.5,30.14,WNW,293,3.7,11.2,48,0.00,,,0.00,WSDL version 420,2013-03-04 01:17:00,
2013-03-03 20:22:00,23.5,8.7,30.14,West,270,6.3,10.3,49,0.00,,,0.00,WSDL version 420,2013-03-04 01:22:00,
2013-03-03 20:27:00,23.5,8.5,30.14,WSW,253,3.8,10.1,48,0.00,,,0.00,WSDL version 420,2013-03-04 01:27:00,
2013-03-03 20:32:00,23.5,8.5,30.14,WSW,239,3.6,11.0,48,0.00,,,0.00,WSDL version 420,2013-03-04 01:32:00,
2013-03-03 20:37:00,23.5,8.4,30.14,WSW,253,5.7,15.4,47,0.00,,,0.00,WSDL version 420,2013-03-04 01:37:00,
2013-03-03 20:42:00,23.4,8.0,30.14,West,276,5.3,15.4,47,0.00,,,0.00,WSDL version 420,2013-03-04 01:42:00,
2013-03-03 20:47:00,23.4,8.2,30.14,West,281,4.3,8.7,48,0.00,,,0.00,WSDL version 420,2013-03-04 01:47:00,
2013-03-03 20:52:00,23.4,8.2,30.14,SSW,200,0.4,7.4,48,0.00,,,0.00,WSDL version 420,2013-03-04 01:52:00,
2013-03-03 20:57:00,23.2,8.0,30.14,SW,233,4.0,7.4,47,0.00,,,0.00,WSDL version 420,2013-03-04 01:57:00,
2013-03-03 21:02:00,23.1,7.8,30.14,WNW,298,7.0,16.8,48,0.00,,,0.00,WSDL version 420,2013-03-04 02:02:00,
2013-03-03 21:07:00,23.1,7.9,30.14,WSW,256,4.0,16.8,47,0.00,,,0.00,WSDL version 420,2013-03-04 02:07:00,
2013-03-03 21:12:00,23.1,7.7,30.14,West,264,2.8,9.2,47,0.00,,,0.00,WSDL version 420,2013-03-04 02:12:00,
2013-03-03 21:17:00,22.8,7.8,30.14,SW,236,1.7,10.3,48,0.00,,,0.00,WSDL version 420,2013-03-04 02:17:00,
2013-03-03 21:22:00,22.8,7.9,30.14,SW,222,3.7,10.3,48,0.00,,,0.00,WSDL version 420,2013-03-04 02:22:00,
2013-03-03 21:27:00,22.8,7.9,30.13,SW,225,2.1,6.3,48,0.00,,,0.00,WSDL version 420,2013-03-04 02:27:00,
2013-03-03 21:32:00,22.8,7.6,30.13,NE,45,2.3,6.3,47,0.00,,,0.00,WSDL version 420,2013-03-04 02:32:00,
2013-03-03 21:37:00,22.8,7.4,30.14,SW,225,2.9,7.6,47,0.00,,,0.00,WSDL version 420,2013-03-04 02:37:00,
2013-03-03 21:42:00,22.8,7.5,30.14,WSW,239,3.5,7.6,48,0.00,,,0.00,WSDL version 420,2013-03-04 02:42:00,
2013-03-03 21:47:00,22.7,7.5,30.14,WNW,287,1.8,7.4,47,0.00,,,0.00,WSDL version 420,2013-03-04 02:47:00,
2013-03-03 21:52:00,22.6,7.3,30.13,NW,307,2.9,7.4,47,0.00,,,0.00,WSDL version 420,2013-03-04 02:52:00,
2013-03-03 21:57:00,22.6,6.9,30.13,SW,228,7.3,13.2,46,0.00,,,0.00,WSDL version 420,2013-03-04 02:57:00,
2013-03-03 22:02:00,22.6,7.3,30.13,WSW,248,6.6,13.2,47,0.00,,,0.00,WSDL version 420,2013-03-04 03:02:00,
2013-03-03 22:07:00,22.6,7.3,30.13,SW,233,5.7,8.1,47,0.00,,,0.00,WSDL version 420,2013-03-04 03:07:00,
2013-03-03 22:12:00,22.6,7.4,30.13,West,264,3.8,8.5,48,0.00,,,0.00,WSDL version 420,2013-03-04 03:12:00,
2013-03-03 22:17:00,22.6,7.3,30.13,WNW,284,3.5,9.8,47,0.00,,,0.00,WSDL version 420,2013-03-04 03:17:00,
2013-03-03 22:22:00,22.5,7.2,30.13,SW,235,1.8,9.8,47,0.00,,,0.00,WSDL version 420,2013-03-04 03:22:00,
2013-03-03 22:27:00,22.5,7.4,30.13,SSE,160,3.4,7.8,47,0.00,,,0.00,WSDL version 420,2013-03-04 03:27:00,
2013-03-03 22:32:00,22.4,7.0,30.13,NW,305,2.5,7.8,47,0.00,,,0.00,WSDL version 420,2013-03-04 03:32:00,
2013-03-03 22:37:00,22.3,7.1,30.13,WSW,250,2.8,5.4,47,0.00,,,0.00,WSDL version 420,2013-03-04 03:37:00,
2013-03-03 22:42:00,22.2,7.1,30.13,SW,215,3.5,8.5,48,0.00,,,0.00,WSDL version 420,2013-03-04 03:42:00,
2013-03-03 22:47:00,22.2,6.9,30.13,WSW,245,2.7,12.3,47,0.00,,,0.00,WSDL version 420,2013-03-04 03:47:00,
2013-03-03 22:52:00,22.3,6.9,30.10,ESE,121,3.1,12.3,47,0.00,,,0.00,WSDL version 420,2013-03-04 03:52:00,
2013-03-03 22:57:00,22.1,6.9,30.10,West,278,3.3,8.1,48,0.00,,,0.00,WSDL version 420,2013-03-04 03:57:00,
2013-03-03 23:02:00,22.1,7.2,30.10,NNW,338,1.8,5.6,48,0.00,,,0.00,WSDL version 420,2013-03-04 04:02:00,
2013-03-03 23:07:00,22.0,7.0,30.10,ENE,68,3.8,8.5,48,0.00,,,0.00,WSDL version 420,2013-03-04 04:07:00,
2013-03-03 23:12:00,22.1,7.3,30.09,West,268,3.2,8.5,48,0.00,,,0.00,WSDL version 420,2013-03-04 04:12:00,
2013-03-03 23:17:00,22.0,7.1,30.09,SW,233,1.7,5.6,48,0.00,,,0.00,WSDL version 420,2013-03-04 04:17:00,
2013-03-03 23:22:00,21.9,7.1,30.13,ESE,118,2.9,6.9,49,0.00,,,0.00,WSDL version 420,2013-03-04 04:22:00,
2013-03-03 23:27:00,22.0,7.2,30.13,NW,309,0.9,6.9,49,0.00,,,0.00,WSDL version 420,2013-03-04 04:27:00,
2013-03-03 23:32:00,21.9,7.4,30.13,South,190,3.5,6.7,49,0.00,,,0.00,WSDL version 420,2013-03-04 04:32:00,
2013-03-03 23:37:00,21.9,7.4,30.09,NNW,335,3.1,6.7,49,0.00,,,0.00,WSDL version 420,2013-03-04 04:37:00,
2013-03-03 23:42:00,21.9,7.1,30.09,West,281,3.0,6.5,48,0.00,,,0.00,WSDL version 420,2013-03-04 04:42:00,
2013-03-03 23:47:00,21.9,7.1,30.09,SW,215,1.2,6.3,49,0.00,,,0.00,WSDL version 420,2013-03-04 04:47:00,
2013-03-03 23:52:00,21.9,7.4,30.13,SW,215,3.8,6.3,49,0.00,,,0.00,WSDL version 420,2013-03-04 04:52:00,
2013-03-03 23:57:00,21.8,7.2,30.13,WNW,298,3.7,6.3,49,0.00,,,0.00,WSDL version 420,2013-03-04 04:57:00,